Weather observations for the past three days for
Norton Municipal Airport
Imperial (Metric)
Date Time (cdt) Wind (mph) Vis. (mi.) Weather Sky Cond. Temperature (ºF) Relative Humidity Wind Chill (°F) Heat Index (°F) Pressure Precipitation (in)
Air Dwpt 6 hour altimeter (in) sea level (mb) 1 hr 3 hr 6 hr
Max. Min.
12 22:55 SE 7 10.00 Fair CLR 82.4 60.8 48% 83 30.01 0.0
12 22:35 SE 12 G 16 10.00 Fair CLR 82.4 60.8 48% 83 30.01 0.0
12 22:15 SE 8 10.00 Fair CLR 80.6 62.6 54% 82 30 0.0
12 21:55 E 7 10.00 Fair CLR 80.6 62.6 54% 82 29.99 0.0
12 21:35 SE 9 10.00 Fair CLR 82.4 62.6 51% 83 29.99 0.0
12 21:15 E 9 10.00 Fair CLR 82.4 62.6 51% 83 29.99 0.0
12 20:55 E 9 10.00 Fair CLR 86 62.6 46% 87 29.99 0.0
12 20:35 E 10 10.00 Fair CLR 87.8 62.6 43% 88 29.99 0.0
12 20:15 E 10 G 18 10.00 Fair CLR 87.8 60.8 40% 88 29.99 0.0
12 19:55 E 12 10.00 Fair CLR 89.6 62.6 41% 90 29.98 0.0
12 19:35 E 14 G 23 10.00 Fair CLR 93.2 62.6 36% 94 29.98 0.0
12 19:15 E 15 G 21 10.00 Fair CLR 93.2 62.6 36% 94 29.98 0.0
12 18:55 E 17 G 22 10.00 Fair CLR 93.2 62.6 36% 94 29.98 0.0
12 18:35 E 16 G 20 10.00 Fair CLR 96.8 62.6 32% 98 29.98 0.0
12 18:15 E 17 10.00 Fair CLR 96.8 62.6 32% 98 29.97 0.0
12 17:55 SE 6 10.00 Fair CLR 98.6 57.2 25% 98 29.97 0.0
12 17:35 SE 7 10.00 Fair CLR 98.6 59 27% 98 29.97 0.0
12 17:15 SE 6 10.00 Fair CLR 100.4 57.2 24% 100 29.98 0.0
12 16:55 SE 6 10.00 Fair CLR 100.4 59 25% 100 29.98 0.0
12 16:35 SE 9 G 16 10.00 Fair CLR 98.6 60.8 29% 99 29.98 0.0
12 16:15 SE 10 G 16 10.00 Fair CLR 98.6 60.8 29% 99 29.98 0.0
12 15:55 SE 13 G 16 10.00 Fair CLR 98.6 62.6 31% 100 29.98 0.0
12 15:35 SE 10 10.00 Fair CLR 98.6 60.8 29% 99 29.98 0.0
12 15:15 SE 10 G 17 10.00 Fair CLR 96.8 64.4 34% 99 29.98 0.0
12 14:55 SE 14 G 18 10.00 Fair CLR 96.8 66.2 37% 100 29.99 0.0
12 14:35 SE 13 G 18 10.00 Fair CLR 95 68 41% 100 30 0.0
12 14:15 SE 15 10.00 Fair CLR 95 66.2 39% 98 30.01 0.0
12 13:55 S 10 G 16 10.00 Fair CLR 93.2 64.4 39% 95 30.02 0.0
12 13:35 S 9 10.00 Fair CLR 93.2 64.4 39% 95 30.02 0.0
12 13:15 S 9 10.00 Fair CLR 93.2 66.2 41% 96 30.03 0.0
12 12:55 S 10 10.00 Fair CLR 89.6 64.4 43% 91 30.03 0.0
12 12:35 SE 9 10.00 Fair CLR 87.8 64.4 46% 89 30.03 0.0
12 12:15 SE 9 10.00 Fair CLR 87.8 69.8 55% 93 30.04 0.0
12 11:55 E 9 10.00 Fair CLR 84.2 68 58% 87 30.05 0.0
12 11:35 E 8 10.00 Fair CLR 87.8 69.8 55% 93 30.05 0.0
12 11:15 E 8 10.00 Fair CLR 87.8 69.8 55% 93 30.05 0.0
12 10:55 E 9 10.00 Fair CLR 82.4 68 62% 85 30.06 0.0
12 10:35 SE 7 10.00 Fair CLR 78.8 68 70% 81 30.05 0.0
12 10:15 SE 5 10.00 Fair CLR 77 68 74% 79 30.05 0.0
12 09:55 Calm 10.00 Partly Cloudy SCT006 73.4 66.2 78% 30.06 0.0
12 09:35 S 6 10.00 Overcast OVC004 73.4 68 83% 30.05 0.0
12 08:55 SE 10 7.00 Overcast OVC002 69.8 68 94% 30.04 0.0
12 08:35 SE 10 5.00 Fog/Mist OVC002 68 66.2 94% 30.03 0.0
12 08:15 SE 10 4.00 Fog/Mist BKN002 OVC006 68 66.2 94% 30.04 0.0
12 07:55 SE 6 4.00 Fog/Mist SCT002 SCT006 68 66.2 94% 30.05 0.0
12 07:35 E 5 4.00 Fog/Mist CLR 68 66.2 94% 30.06 0.0
12 07:15 E 5 4.00 Fog/Mist CLR 68 66.2 94% 30.05 0.0
12 06:55 Calm 4.00 Fog/Mist CLR 66.2 62.6 88% 30.05 0.0
12 06:35 E 5 4.00 Fog/Mist CLR 66.2 62.6 88% 30.04 0.0
12 06:15 E 3 5.00 Fog/Mist CLR 66.2 62.6 88% 30.05 0.0
12 05:55 Calm 7.00 Fair CLR 66.2 62.6 88% 30.04 0.0
12 05:35 Calm 7.00 Fair CLR 66.2 62.6 88% 30.03 0.0
12 05:15 SE 6 10.00 Fair CLR 68 64.4 88% 30.01 0.0
12 04:55 SE 5 10.00 Fair CLR 68 62.6 83% 30.01 0.0
12 04:35 SE 3 10.00 Fair CLR 68 64.4 88% 30.01 0.0
12 04:15 S 3 10.00 Fair CLR 68 64.4 88% 30.01 0.0
12 03:55 Calm 10.00 Fair CLR 68 64.4 88% 30.03 0.0
12 03:35 Calm 10.00 Fair CLR 68 64.4 88% 30.04 0.0
12 03:15 SE 6 10.00 Fair CLR 68 64.4 88% 30.03 0.0
12 02:55 SE 7 10.00 Fair CLR 69.8 64.4 83% 30.03 0.0
12 02:35 SE 7 10.00 Fair CLR 69.8 64.4 83% 30.04 0.0
12 02:15 SE 8 10.00 Fair CLR 71.6 64.4 78% 30.04 0.0
12 01:55 SE 8 10.00 Fair CLR 71.6 64.4 78% 30.05 0.0
12 01:35 SE 6 10.00 Fair CLR 71.6 64.4 78% 30.05 0.0
12 01:15 SE 7 10.00 Fair CLR 73.4 68 83% 30.05 0.0
12 00:55 SE 8 10.00 Fair CLR 73.4 66.2 78% 30.05 0.0
12 00:35 SE 9 10.00 Fair CLR 73.4 64.4 74% 30.07 0.0
12 00:15 SE 7 10.00 Fair CLR 73.4 64.4 74% 30.06 0.0
11 23:55 SE 8 10.00 Fair CLR 73.4 64.4 74% 30.06 0.0
11 23:35 SE 8 10.00 Fair CLR 73.4 64.4 74% 30.06 0.0
11 23:15 E 8 10.00 Fair CLR 73.4 64.4 74% 30.05 0.0
11 22:55 SE 9 10.00 Fair CLR 73.4 64.4 74% 30.05 0.0
11 22:35 SE 8 10.00 Fair CLR 73.4 64.4 74% 30.05 0.0
11 22:15 SE 8 10.00 Fair CLR 75.2 64.4 69% 77 30.05 0.0
11 21:55 SE 7 10.00 Fair CLR 77 64.4 65% 79 30.04 0.0
11 21:35 SE 7 10.00 Fair CLR 77 62.6 61% 79 30.04 0.0
11 21:15 E 7 10.00 Fair CLR 78.8 62.6 58% 80 30.04 0.0
11 20:55 E 7 10.00 Fair CLR 78.8 60.8 54% 80 30.03 0.0
11 20:35 SE 7 10.00 Fair CLR 80.6 60.8 51% 81 30.03 0.0
11 20:15 SE 8 10.00 Fair CLR 82.4 60.8 48% 83 30.04 0.0
11 19:55 SE 8 10.00 Fair CLR 86 60.8 43% 86 30.04 0.0
11 19:35 E 9 10.00 Fair CLR 87.8 60.8 40% 88 30.04 0.0
11 19:15 SE 8 10.00 Fair CLR 87.8 59 38% 87 30.04 0.0
11 18:55 SE 7 10.00 Fair CLR 87.8 59 38% 87 30.05 0.0
11 18:35 SE 8 10.00 Fair CLR 89.6 57.2 33% 88 30.05 0.0
11 18:15 SE 6 10.00 Fair CLR 91.4 57.2 32% 90 30.05 0.0
11 17:55 SE 10 10.00 Fair CLR 89.6 57.2 33% 88 30.05 0.0
11 17:35 SE 8 10.00 Fair CLR 91.4 57.2 32% 90 30.05 0.0
11 17:15 SE 9 10.00 Fair CLR 91.4 59 34% 91 30.05 0.0
11 16:55 E 10 10.00 Fair CLR 93.2 59 32% 93 30.05 0.0
11 16:35 SE 9 10.00 Fair CLR 91.4 57.2 32% 90 30.06 0.0
11 16:15 E 8 10.00 Fair CLR 93.2 57.2 30% 92 30.06 0.0
11 15:55 SE 12 10.00 Fair CLR 91.4 57.2 32% 90 30.06 0.0
11 15:35 SE 8 10.00 Fair CLR 93.2 60.8 34% 93 30.06 0.0
11 15:15 SE 7 10.00 Fair CLR 91.4 55.4 30% 90 30.07 0.0
11 14:55 E 8 G 16 10.00 Fair CLR 89.6 59 36% 89 30.08 0.0
11 14:35 E 7 G 16 10.00 Fair CLR 91.4 59 34% 91 30.08 0.0
11 14:15 SE 8 10.00 Fair CLR 89.6 60.8 38% 90 30.09 0.0
11 13:55 E 9 10.00 Fair CLR 89.6 60.8 38% 90 30.1 0.0
11 13:35 E 8 10.00 Fair CLR 87.8 60.8 40% 88 30.1 0.0
11 13:15 SE 8 10.00 Fair CLR 87.8 60.8 40% 88 30.1 0.0
11 12:55 E 10 G 16 10.00 Fair CLR 87.8 64.4 46% 89 30.1 0.0
11 12:35 E 13 G 16 10.00 Fair CLR 87.8 64.4 46% 89 30.1 0.0
11 12:15 E 9 G 17 10.00 Fair CLR 86 62.6 46% 87 30.11 0.0
11 10:55 E 7 10.00 Fair CLR 80.6 62.6 54% 82 30.1 0.0
11 10:35 E 8 10.00 Fair CLR 78.8 60.8 54% 80 30.12 0.0
11 10:15 E 7 10.00 Fair CLR 78.8 62.6 58% 80 30.12 0.0
11 09:55 E 3 10.00 Fair CLR 77 60.8 57% 79 30.12 0.0
11 09:35 Calm 10.00 Fair CLR 73.4 60.8 65% 30.12 0.0
11 09:15 SE 3 10.00 Fair CLR 73.4 62.6 69% 30.12 0.0
11 08:55 Calm 10.00 Fair CLR 73.4 64.4 74% 30.12 0.0
11 08:35 E 8 7.00 Fair CLR 69.8 62.6 78% 30.1 0.0
11 08:15 E 9 7.00 Fair CLR 68 62.6 83% 30.1 0.0
11 07:55 E 6 10.00 Fair CLR 68 62.6 83% 30.1 0.0
11 07:35 NE 7 10.00 Fair CLR 66.2 62.6 88% 30.1 0.0
11 07:15 NE 5 10.00 Fair CLR 64.4 60.8 88% 30.1 0.0
11 06:55 E 6 7.00 Fair CLR 62.6 60.8 94% 30.09 0.0
11 06:35 E 6 7.00 Fair CLR 62.6 60.8 94% 30.09 0.0
11 06:15 E 5 10.00 Fair CLR 62.6 60.8 94% 30.08 0.0
11 05:55 E 7 10.00 Fair CLR 62.6 60.8 94% 30.08 0.0
11 05:35 E 7 10.00 Fair CLR 62.6 60.8 94% 30.08 0.0
11 05:15 E 7 10.00 Fair CLR 64.4 60.8 88% 30.08 0.0
11 04:55 E 7 10.00 Fair CLR 66.2 62.6 88% 30.08 0.0
11 04:35 E 8 10.00 Fair CLR 66.2 62.6 88% 30.08 0.0
11 04:15 E 9 10.00 Fair CLR 66.2 60.8 83% 30.08 0.0
11 03:55 E 8 10.00 Fair CLR 68 62.6 83% 30.08 0.0
11 03:35 E 8 10.00 Fair CLR 68 62.6 83% 30.08 0.0
11 03:15 E 8 10.00 Fair CLR 68 62.6 83% 30.08 0.0
11 02:55 NE 7 10.00 Fair CLR 68 62.6 83% 30.09 0.0
11 02:35 E 8 10.00 Fair CLR 68 62.6 83% 30.09 0.0
11 02:15 E 6 10.00 Fair CLR 68 62.6 83% 30.09 0.0
11 01:55 NE 5 10.00 Fair CLR 68 62.6 83% 30.1 0.0
11 01:35 E 6 10.00 Fair CLR 68 62.6 83% 30.1 0.0
11 01:15 E 6 10.00 Fair CLR 68 62.6 83% 30.1 0.0
11 00:55 E 7 10.00 Fair CLR 69.8 62.6 78% 30.1 0.0
11 00:35 E 8 10.00 Fair CLR 71.6 62.6 73% 30.1 0.0
11 00:15 E 9 10.00 Fair CLR 73.4 64.4 74% 30.11 0.0
10 23:55 E 12 10.00 Fair CLR 73.4 64.4 74% 30.1 0.0
10 23:35 E 12 10.00 Fair CLR 73.4 64.4 74% 30.1 0.0
10 23:15 NE 7 10.00 Fair CLR 71.6 62.6 73% 30.1 0.0
10 22:55 E 5 10.00 Fair CLR 73.4 62.6 69% 30.09 0.0
10 22:35 E 5 10.00 Fair CLR 73.4 62.6 69% 30.09 0.0
10 22:15 NE 6 10.00 Fair CLR 73.4 60.8 65% 30.08 0.0
10 21:55 NE 8 10.00 Fair CLR 77 60.8 57% 79 30.08 0.0
10 21:35 NE 7 10.00 Fair CLR 77 59 54% 79 30.08 0.0
10 21:15 NE 6 10.00 Fair CLR 78.8 59 51% 80 30.07 0.0
10 20:55 NE 6 10.00 Fair CLR 78.8 57.2 48% 80 30.06 0.0
10 20:35 NE 7 10.00 Fair CLR 82.4 53.6 37% 81 30.06 0.0
10 20:15 NE 8 10.00 Fair CLR 86 55.4 35% 85 30.05 0.0
10 19:55 NE 7 10.00 Fair CLR 87.8 53.6 31% 86 30.05 0.0
10 19:35 NE 9 10.00 Fair CLR 87.8 51.8 29% 85 30.05 0.0
10 19:15 N 10 10.00 Fair CLR 89.6 51.8 27% 87 30.04 0.0
10 18:55 N 10 10.00 Fair CLR 91.4 51.8 26% 89 30.04 0.0
10 18:35 NE 13 10.00 Fair CLR 93.2 53.6 26% 91 30.04 0.0
10 18:15 N 7 10.00 Fair CLR 93.2 50 23% 90 30.04 0.0
10 17:55 N 8 10.00 Fair CLR 93.2 48.2 21% 90 30.04 0.0
10 17:35 NE 3 10.00 Fair CLR 95 48.2 20% 92 30.04 0.0
10 17:15 NW 7 10.00 Fair CLR 96.8 50 20% 94 30.04 0.0
10 16:55 Calm 10.00 Partly Cloudy SCT090 95 48.2 20% 92 30.05 0.0
10 16:35 Calm 10.00 Partly Cloudy SCT090 95 50 22% 92 30.05 0.0
10 16:15 Calm 10.00 Partly Cloudy SCT090 95 51.8 23% 92 30.05 0.0
10 15:55 E 3 10.00 Fair CLR 93.2 51.8 24% 90 30.05 0.0
10 15:35 S 8 10.00 Partly Cloudy SCT085 95 51.8 23% 92 30.05 0.0
10 15:15 Calm 10.00 Fair CLR 93.2 53.6 26% 91 30.06 0.0
10 14:55 SW 7 10.00 Fair CLR 93.2 51.8 24% 90 30.06 0.0
10 14:35 S 6 10.00 Fair CLR 93.2 53.6 26% 91 30.06 0.0
10 14:15 S 8 10.00 Fair CLR 93.2 55.4 28% 91 30.07 0.0
10 13:55 S 7 10.00 Fair CLR 93.2 55.4 28% 91 30.08 0.0
10 13:35 S 7 10.00 Fair CLR 93.2 55.4 28% 91 30.08 0.0
10 13:15 SE 6 10.00 Fair CLR 91.4 55.4 30% 90 30.08 0.0
10 12:55 S 5 10.00 Fair CLR 89.6 55.4 31% 88 30.09 0.0
10 12:35 SE 8 10.00 Fair CLR 87.8 55.4 33% 86 30.09 0.0
10 12:15 SW 5 10.00 Fair CLR 87.8 55.4 33% 86 30.09 0.0
10 11:55 SE 6 10.00 Fair CLR 87.8 57.2 35% 87 30.1 0.0
10 11:35 SE 5 10.00 Fair CLR 87.8 59 38% 87 30.1 0.0
10 11:15 SE 5 10.00 Fair CLR 86 57.2 38% 85 30.1 0.0
10 10:55 Calm 10.00 Fair CLR 82.4 55.4 40% 82 30.1 0.0
10 10:35 S 3 10.00 Fair CLR 80.6 55.4 42% 81 30.1 0.0
10 10:15 SW 3 10.00 Fair CLR 80.6 55.4 42% 81 30.1 0.0
10 09:55 Calm 10.00 Fair CLR 78.8 55.4 45% 79 30.1 0.0
10 09:35 Calm 10.00 Fair CLR 78.8 55.4 45% 79 30.11 0.0
10 09:15 Calm 10.00 Fair CLR 77 55.4 47% 79 30.11 0.0
10 08:55 Calm 10.00 Fair CLR 77 55.4 47% 79 30.11 0.0
10 08:35 Calm 10.00 Fair CLR 73.4 55.4 53% 30.1 0.0
10 08:15 Calm 10.00 Fair CLR 73.4 57.2 57% 30.1 0.0
10 07:55 Calm 10.00 Fair CLR 71.6 55.4 57% 30.09 0.0
10 07:35 Calm 10.00 Fair CLR 68 55.4 64% 30.08 0.0
10 07:15 SW 6 10.00 Fair CLR 68 55.4 64% 30.08 0.0
10 06:55 SW 7 10.00 Fair CLR 64.4 55.4 73% 30.08 0.0
10 06:35 SW 3 10.00 Fair CLR 62.6 55.4 77% 30.08 0.0
10 06:15 SW 8 10.00 Fair CLR 62.6 53.6 73% 30.08 0.0
10 05:55 SW 5 10.00 Fair CLR 60.8 53.6 77% 30.08 0.0
10 05:35 W 5 10.00 Fair CLR 62.6 53.6 73% 30.08 0.0
10 05:15 SW 6 10.00 Partly Cloudy SCT120 62.6 53.6 73% 30.08 0.0
10 04:55 SW 3 10.00 Partly Cloudy SCT120 62.6 53.6 73% 30.08 0.0
10 04:35 SW 5 10.00 Partly Cloudy SCT120 66.2 55.4 68% 30.08 0.0
10 04:15 SW 7 10.00 Partly Cloudy SCT110 64.4 55.4 73% 30.08 0.0
10 03:55 SW 7 10.00 Fair CLR 62.6 53.6 73% 30.08 0.0
10 03:35 SW 7 10.00 Fair CLR 62.6 53.6 73% 30.08 0.0
10 03:15 SW 6 10.00 Fair CLR 66.2 55.4 68% 30.08 0.0
10 02:55 SW 6 10.00 Fair CLR 68 55.4 64% 30.08 0.0
10 02:35 S 7 10.00 Fair CLR 68 53.6 60% 30.08 0.0
10 02:15 S 6 10.00 Fair CLR 68 53.6 60% 30.09 0.0
10 01:55 S 6 10.00 Fair CLR 68 53.6 60% 30.09 0.0
10 01:35 S 5 10.00 Partly Cloudy SCT110 68 53.6 60% 30.1 0.0
10 01:15 S 6 10.00 Partly Cloudy SCT110 69.8 53.6 57% 30.1 0.0
10 00:55 S 5 10.00 Fair CLR 68 55.4 64% 30.1 0.0
10 00:35 SE 3 10.00 Fair CLR 68 55.4 64% 30.1 0.0
10 00:15 SE 3 10.00 Fair CLR 68 55.4 64% 30.1 0.0
09 23:55 Calm 10.00 Partly Cloudy SCT120 68 57.2 69% 30.09 0.0
09 23:35 Calm 10.00 Partly Cloudy SCT120 68 55.4 64% 30.08 0.0
09 23:15 SE 3 10.00 Partly Cloudy SCT120 68 55.4 64% 30.08 0.0
Date Time (cdt) Wind (mph) Vis. (mi.) Weather Sky Cond. Air Dwpt Max. Min. Relative Humidity Wind Chill (°F) Heat Index (°F) altimeter (in) sea level (mb) 1 hr 3 hr 6 hr
6 hour
Temperature (ºF) Pressure Precipitation (in)